Regional Weather Roundup
Issued by NWS

Home | Current Version | Previous Version | Graphics & Text | Print | Product List | Glossary On
Versions: 1 2 3 4 5 6 7 8 9 10 11 12 13 14 15 16 17 18 19 20 21 22 23 24 25 26 27 28 29 30 31 32 33 34 35 36 37 38 39 40 41 42 43 44 45 46 47 48 49 50
385
ASUS43 KMPX 261910
RWRMN
WEATHER ROUNDUP FOR MINNESOTA
NATIONAL WEATHER SERVICE TWIN CITIES/CHANHASSEN MN
200 PM CDT WED JUL 26 2017


NOTE: "FAIR" INDICATES FEW OR NO CLOUDS BELOW 12,000 FEET WITH NO
SIGNIFICANT WEATHER AND/OR OBSTRUCTIONS TO VISIBILITY. N/A MEANS
CURRENT SKY AND/OR WEATHER CONDITIONS ARE NOT AVAILABLE.

MNZ060>063-068>070-262000-
   Twin Cities Metro

CITY           SKY/WX    TMP DP  RH WIND       PRES   REMARKS
TWIN CITIES    CLOUDY    82  68  62 NW8       29.99F
ST PAUL        CLOUDY    79  69  71 NW9       29.99S
CRYSTAL        CLOUDY    80  61  52 NW10      29.99S
BLAINE         PTSUNNY   82  63  51 NW12G17   30.00S
LAKEVILLE      CLOUDY    75  72  88 NW7       30.00S
EDEN PRAIRIE   MOSUNNY   82  66  57 NW7       29.99
SOUTH ST PAUL  CLOUDY    78  71  78 NW7       29.99S
LAKE ELMO      PTSUNNY   77  70  78 NW7       30.01S
$$
MNZ001>005-007-008-013>017-022>024-027-028-262000-
   Northwest Minnesota

CITY           SKY/WX    TMP DP  RH WIND       PRES   REMARKS
BEMIDJI        MOSUNNY   78  58  49 N9        30.04S
HALLOCK        MOSUNNY   79  63  57 NW7       30.05S
ROSEAU         MOSUNNY   77  63  61 NW8       30.03S
WARROAD        MOSUNNY   79  63  57 NW12      30.03S
THIEF RVR FALL PTSUNNY   77  59  53 NW10G17   30.06S
CROOKSTON      MOSUNNY   79  61  53 NW10      30.06S
FOSSTON        MOSUNNY   77  61  57 NW8       30.06S
DETROIT LAKES  MOSUNNY   75  59  57 NW8       30.07S
MOORHEAD       SUNNY     79  61  53 N12G17    30.06F
PARK RAPIDS    MOSUNNY   80  58  46 NW13      30.04S
MAHNOMEN       FAIR      75  61  60 NW9       30.05S
$$
MNZ006-009>011-018-025>026-262000-
   North Central Minnesota

CITY           SKY/WX    TMP DP  RH WIND       PRES   REMARKS
BAUDETTE       SUNNY     78  60  53 N10G17    30.02S
FLAG ISLAND    SUNNY     75  59  57 NW9       30.01R
INTL FALLS     PTSUNNY   78  60  53 NW10      29.99R
WASKISH        PTSUNNY   77  61  57 NW7       30.02S
BIG FORK       MOSUNNY   79  61  53 NW6       30.01S
LONGVILLE      SUNNY     79  59  50 NW8       30.03S
GRAND RAPIDS   PTSUNNY   77  62  59 NW9       30.03F
CRANE LAKE     MOSUNNY   73  57  56 NW8       29.99S
ORR            MOSUNNY   79  55  44 NW9       29.97S
COOK             N/A     77  57  50 NW8G17    30.00S
WALKER         FAIR      76  59  54 NW8       30.03S
$$
MNZ012-019>021-037-262000-
   Northeast Minnesota

CITY           SKY/WX    TMP DP  RH WIND       PRES   REMARKS
DULUTH         MOSUNNY   78  61  55 NW9       29.99F
ELY            MOSUNNY   75  55  50 W6        29.98S
HIBBING        MOSUNNY   76  57  51 NW10      30.00F
EVELETH        SUNNY     78  43  28 NW8G20    30.01S
DULUTH HARBOR  MOSUNNY   82  63  51 W8        29.97S
TWO HARBORS    SUNNY     82  63  51 NW8       29.95F
SILVER BAY     MOSUNNY   81  55  41 W3        29.94F
GRAND MARAIS     N/A     69  61  75 W12       29.92S
G MARAIS ARPRT SUNNY     75  52  43 W10G20    29.98S
$$
MNZ029>031-032-039>041-046>048-054>057-064-262000-
   West Central Minnesota

CITY           SKY/WX    TMP DP  RH WIND       PRES   REMARKS
FERGUS FALLS   MOSUNNY   75  63  64 NW12      30.05F
WHEATON        SUNNY     81  57  44 NW8       30.07F
MORRIS         SUNNY     82  61  47 NW9       30.05F
ALEXANDRIA     MOSUNNY   78  61  55 NW8       30.06F
ELBOW LAKE     PTSUNNY   77  62  58 W13       30.06F HAZE
WADENA         MOSUNNY   79  61  53 NW7       30.04S
GLENWOOD       SUNNY     81  59  47 NW10G18   30.06F
APPLETON       MOSUNNY   81  59  47 N6        30.05S
BENSON         MOSUNNY   81  61  50 N8        30.06F
ORTONVILLE     MOSUNNY   79  61  53 MISG      30.06F
MADISON        SUNNY     82  59  44 N9        30.06S
WILLMAR        FAIR      79  61  53 N6        30.05F
$$
MNZ033>034-036-042>043-049>051-058-059-262000-
   Central Minnesota

CITY           SKY/WX    TMP DP  RH WIND       PRES   REMARKS
ST CLOUD       MOSUNNY   80  62  54 N9        30.02F
SAUK CENTRE    FAIR      79  60  52 W7        30.05S
PAYNESVILLE    MOSUNNY   81  59  47 NW10      30.04F
AITKIN         MOSUNNY   75  61  60 NW5       30.01S
PINE RIVER     PTSUNNY   79  61  53 N6        30.06S
BRAINERD       PTSUNNY   78  58  49 NW10      30.02F
STAPLES        MOSUNNY   81  57  44 NW8       30.04S
LONG PRAIRIE   PTSUNNY   79  59  50 W8G16     30.04F
LITTLE FALLS   PTSUNNY   79  55  44 W7        30.03F
LITCHFIELD     PTSUNNY   81  63  54 NW8       30.04S
BUFFALO          N/A     81  57  43 W7        30.02F
MAPLE LAKE     MOSUNNY   80  65  61 NW6       30.03S
HUTCHINSON     SUNNY     79  66  64 CALM      30.03F
$$
MNZ037-044-045-052-053-262000-
   East Central Minnesota

CITY           SKY/WX    TMP DP  RH WIND       PRES   REMARKS
PRINCETON      MOSUNNY   82  63  51 W7        30.01F
MORA           MOSUNNY   77  57  50 CALM      30.02F
CAMBRIDGE      MOSUNNY   82  61  47 NW9       30.00S
RUSH CITY      SUNNY     79  58  48 N5        30.01F
MOOSE LAKE     SUNNY     77  59  53 W3        29.99S
HINCKLEY       FAIR      79  61  53 W3        30.01S
CLOQUET        MOSUNNY   79  57  47 W9        30.00F
MCGREGOR       MOSUNNY   79  59  50 NW7       30.02S
$$
MNZ071>073-080-081-089-090-097-098-262000-
   Southwest Minnesota

CITY           SKY/WX    TMP DP  RH WIND       PRES   REMARKS
MONTEVIDEO     SUNNY     82  61  47 NE10      30.05S
GRANITE FALLS  SUNNY     81  61  49 N5        30.06S
CANBY          SUNNY     82  58  44 CALM      30.07S
REDWOOD FALLS  SUNNY     81  63  54 N9        30.02F
OLIVIA         MOSUNNY   79  63  57 N3        30.03S
PIPESTONE      SUNNY     81  64  57 NE9       30.06S
WINDOM         CLOUDY    79  68  69 N6        30.04S
WORTHINGTON    CLOUDY    79  69  71 NE8       30.04F
JACKSON        CLOUDY    77  68  73 CALM      30.03F
TRACY          MOSUNNY   80  66  63 NE10      30.05S
SLAYTON        RAIN      77  62  59 NE8       30.06S
$$
MNZ065>067-074>077-082>085-091>093-262000-
   South Central Minnesota

CITY           SKY/WX    TMP DP  RH WIND       PRES   REMARKS
MANKATO        CLOUDY    75  70  84 VRB3      30.03R
NEW ULM        CLOUDY    79  70  73 N3        30.02S
ST JAMES       CLOUDY    81  70  69 CALM      30.03S
FAIRMONT       CLOUDY    77  69  76 CALM      30.02F
GLENCOE        CLOUDY    80  66  62 NW6       30.01S
FARIBAULT      CLOUDY    75  72  88 W3        30.02S
OWATONNA       CLOUDY    75  72  88 W3        30.02F
WASECA         CLOUDY    73  68  83 W3        30.04S
ALBERT LEA     CLOUDY    75  73  94 CALM      30.02F
$$
MNZ078>079-086>088-094>096-262000-
   Southeast Minnesota

CITY           SKY/WX    TMP DP  RH WIND       PRES   REMARKS
ROCHESTER      CLOUDY    75  70  84 S3        30.02S
RED WING       CLOUDY    75  70  83 S5        29.98S
STANTON        CLOUDY    76  70  83 CALM      29.99S
DODGE CENTER   CLOUDY    75  70  83 SW6       30.02F
WINONA         CLOUDY    77  68  73 CALM      29.99S
AUSTIN         LGT RAIN  73  72  94 S5        30.03F
PRESTON        CLOUDY    76  68  78 SW9       30.04R
$$
ABBREVIATIONS USED IN REMARKS
   TC - TEMPERATURES IN CELSIUS
  WCI - WIND CHILL INDEX
   HX - HEAT INDEX
  VSB - VISIBILITY
$$




USA.gov is the U.S. government's official web portal to all federal, state and local government web resources and services.